Beverly, MA

5:53 PM EDT on September 23, 2017 (GMT -0400)
Beverly Municipal

Weather History for KBVY - June, 2013

Change the Weather History Date:

Friday, June 21, 2013

  Actual Average Record
Temperature  
Mean Temperature 70 °F -  
Max Temperature 82 °F 75 °F 93 °F (2012)
Min Temperature 59 °F 55 °F 15 °F (1975)
Cooling Degree Days 5    
Growing Degree Days 20 (Base 50)    
Moisture  
Dew Point 58 °F    
Average Humidity 68    
Maximum Humidity 87    
Minimum Humidity 49    
Precipitation  
Precipitation 0.00 in - - ()
Sea Level Pressure  
Sea Level Pressure 30.20 in    
Wind  
Wind Speed 6 mph (SSW)    
Max Wind Speed 12 mph    
Max Gust Speed -    
Visibility 10 miles    
Events      
Averages and records for this station are not official NWS values.
T = Trace of Precipitation, MM = Missing Value Source: NWS Daily Summary

Daily Weather History Graph

Daily Weather History Graph

Search for Another Location

Airport or City:

Trip Planner

Search our weather history database for the weather conditions in past years. The results will help you decide how hot, cold, wet, or windy it might be!

Date:

Astronomy

Jun. 21, 2013 Rise Set
Actual Time 5:06 AM EDT 8:24 PM EDT
Civil Twilight 4:31 AM EDT 8:59 PM EDT
Nautical Twilight 3:45 AM EDT 9:45 PM EDT
Astronomical Twilight 2:50 AM EDT 10:40 PM EDT
Moon 6:30 PM EDT (6/21) 3:20 AM EDT (6/21)
Length of Visible Light 16h 28m
Length of Day
15h 18m
Waxing Gibbous, 95% of the Moon is Illuminated
Jun 21
Waxing Gibbous
Jun 23
Full
Jun 30
Last Quarter
Jul 8
New
Jul 15
First Quarter

Hourly Weather History & Observations

Time (EDT) Temp. Heat Index Dew Point Humidity Pressure Visibility Wind Dir Wind Speed Gust Speed Precip Events Conditions
12:53 AM 63.0 °F - 54.0 °F 72% 30.23 in 10.0 mi SW 6.9 mph - N/A   Clear
1:53 AM 62.1 °F - 53.1 °F 72% 30.22 in 10.0 mi SW 5.8 mph - N/A   Clear
2:53 AM 60.1 °F - 53.1 °F 78% 30.20 in 10.0 mi SSW 8.1 mph - N/A   Clear
3:53 AM 60.1 °F - 53.1 °F 78% 30.20 in 10.0 mi SW 6.9 mph - N/A   Clear
4:53 AM 59.0 °F - 53.1 °F 81% 30.21 in 10.0 mi SW 10.4 mph - N/A   Clear
5:53 AM 59.0 °F - 53.1 °F 81% 30.22 in 10.0 mi SW 5.8 mph - N/A   Clear
6:53 AM 62.1 °F - 54.0 °F 75% 30.22 in 10.0 mi WSW 8.1 mph - N/A   Clear
7:53 AM 64.9 °F - 55.0 °F 70% 30.22 in 10.0 mi SW 11.5 mph - N/A   Partly Cloudy
8:53 AM 69.1 °F - 57.0 °F 65% 30.22 in 10.0 mi WSW 9.2 mph - N/A   Clear
9:53 AM 71.1 °F - 57.9 °F 63% 30.21 in 10.0 mi West 5.8 mph - N/A   Mostly Cloudy
10:53 AM 75.0 °F - 59.0 °F 57% 30.22 in 10.0 mi Variable 3.5 mph - N/A   Clear
11:53 AM 78.1 °F - 60.1 °F 54% 30.22 in 10.0 mi West 6.9 mph - N/A   Partly Cloudy
12:53 PM 81.0 °F 81.6 °F 60.1 °F 49% 30.21 in 10.0 mi Variable 4.6 mph - N/A   Mostly Cloudy
1:53 PM 80.1 °F 80.9 °F 60.1 °F 50% 30.20 in 10.0 mi Variable 4.6 mph - N/A   Mostly Cloudy
2:53 PM 80.1 °F 81.1 °F 61.0 °F 52% 30.19 in 10.0 mi East 4.6 mph - N/A   Mostly Cloudy
3:53 PM 77.0 °F - 62.1 °F 60% 30.19 in 10.0 mi SSE 8.1 mph - N/A   Mostly Cloudy
4:53 PM 78.1 °F - 62.1 °F 58% 30.17 in 10.0 mi SE 6.9 mph - N/A   Scattered Clouds
5:53 PM 75.9 °F - 61.0 °F 60% 30.18 in 10.0 mi SE 6.9 mph - N/A   Clear
6:53 PM 75.0 °F - 61.0 °F 62% 30.19 in 10.0 mi SE 5.8 mph - N/A   Clear
7:53 PM 73.0 °F - 61.0 °F 66% 30.19 in 10.0 mi Calm Calm - N/A   Clear
8:53 PM 66.9 °F - 61.0 °F 81% 30.19 in 10.0 mi SSE 3.5 mph - N/A   Clear
9:53 PM 66.0 °F - 61.0 °F 84% 30.20 in 10.0 mi Calm Calm - N/A   Clear
10:53 PM 64.9 °F - 61.0 °F 87% 30.20 in 8.0 mi Calm Calm - N/A   Clear
11:53 PM 64.9 °F - 61.0 °F 87% 30.19 in 10.0 mi Calm Calm - N/A   Clear